TimeMDT,TemperatureF,Dew PointF,Humidity,Sea Level PressureIn,VisibilityMPH,Wind Direction,Wind SpeedMPH,Gust SpeedMPH,PrecipitationIn,Events,Conditions,WindDirDegrees,DateUTC
12:51 AM,57.0,37.0,47,29.99,10.0,Calm,Calm,-,N/A,,Clear,0,2013-07-23 06:51:00
1:51 AM,60.1,33.1,36,29.99,10.0,NNE,5.8,-,N/A,,Clear,30,2013-07-23 07:51:00
2:51 AM,55.9,37.9,51,29.99,10.0,Calm,Calm,-,N/A,,Clear,0,2013-07-23 08:51:00
3:51 AM,50.0,37.9,63,30.00,10.0,Calm,Calm,-,N/A,,Clear,0,2013-07-23 09:51:00
4:51 AM,48.0,35.1,61,30.02,10.0,Calm,Calm,-,N/A,,Clear,0,2013-07-23 10:51:00
5:51 AM,46.9,34.0,61,30.03,10.0,Calm,Calm,-,N/A,,Clear,0,2013-07-23 11:51:00
6:51 AM,45.0,34.0,65,30.04,10.0,Calm,Calm,-,N/A,,Clear,0,2013-07-23 12:51:00
7:51 AM,53.1,37.9,57,30.05,10.0,Calm,Calm,-,N/A,,Clear,0,2013-07-23 13:51:00
8:51 AM,62.1,36.0,38,30.04,10.0,Calm,Calm,-,N/A,,Clear,0,2013-07-23 14:51:00
9:51 AM,66.9,41.0,39,30.04,10.0,Calm,Calm,-,N/A,,Clear,0,2013-07-23 15:51:00
10:51 AM,72.0,39.9,31,30.04,10.0,South,8.1,-,N/A,,Clear,170,2013-07-23 16:51:00
11:51 AM,77.0,32.0,19,30.03,10.0,SW,4.6,-,N/A,,Clear,220,2013-07-23 17:51:00
12:51 PM,81.0,24.1,12,30.03,10.0,SSW,5.8,-,N/A,,Clear,200,2013-07-23 18:51:00
1:51 PM,84.9,12.0,7,30.00,10.0,Variable,5.8,-,N/A,,Clear,0,2013-07-23 19:51:00
2:51 PM,87.1,16.0,7,29.99,10.0,Variable,3.5,-,N/A,,Clear,0,2013-07-23 20:51:00
3:51 PM,88.0,15.1,7,29.99,10.0,NNE,5.8,-,N/A,,Clear,20,2013-07-23 21:51:00
4:51 PM,87.1,18.0,8,29.97,10.0,Variable,3.5,-,N/A,,Clear,0,2013-07-23 22:51:00
5:51 PM,88.0,19.9,8,29.95,10.0,Variable,5.8,-,N/A,,Clear,0,2013-07-23 23:51:00
6:51 PM,87.1,21.9,9,29.96,10.0,Calm,Calm,-,N/A,,Clear,0,2013-07-24 00:51:00
7:51 PM,84.0,25.0,12,29.95,10.0,NW,5.8,-,N/A,,Clear,320,2013-07-24 01:51:00
8:51 PM,81.0,33.1,18,29.94,10.0,NNE,6.9,-,N/A,,Clear,20,2013-07-24 02:51:00
9:51 PM,75.9,37.9,25,29.95,10.0,NNE,4.6,-,N/A,,Clear,20,2013-07-24 03:51:00
10:51 PM,73.9,37.9,27,29.96,10.0,NNE,4.6,-,N/A,,Clear,20,2013-07-24 04:51:00
11:51 PM,66.9,41.0,39,29.98,10.0,NE,5.8,-,N/A,,Clear,40,2013-07-24 05:51:00